Time,TemperatureF,DewpointF,PressureIn,WindDirection,WindDirectionDegrees,WindSpeedMPH,WindSpeedGustMPH,Humidity,HourlyPrecipIn,Conditions,Clouds,dailyrainin,SoftwareType,DateUTC
2013-03-29 00:02:00,45.0,38.0,30.18,ESE,112,5.0,6.0,78,-99.99,,,-99.99,,2013-03-29 04:02:00,
2013-03-29 00:12:00,45.0,39.0,30.18,ESE,112,5.0,6.0,79,-99.99,,,-99.99,,2013-03-29 04:12:00,
2013-03-29 00:22:00,45.0,39.0,30.18,ENE,67,4.0,5.0,79,-99.99,,,-99.99,,2013-03-29 04:22:00,
2013-03-29 00:33:00,44.0,39.0,30.18,North,0,5.0,6.0,83,-99.99,,,-99.99,,2013-03-29 04:33:00,
2013-03-29 00:42:00,43.0,39.0,30.17,North,0,5.0,7.0,84,-99.99,,,-99.99,,2013-03-29 04:42:00,
2013-03-29 00:52:00,43.0,38.0,30.17,North,0,5.0,7.0,81,-99.99,,,-99.99,,2013-03-29 04:52:00,
2013-03-29 01:02:00,43.0,38.0,30.17,North,0,5.0,7.0,81,-99.99,,,-99.99,,2013-03-29 05:02:00,
2013-03-29 01:12:00,42.0,38.0,30.16,ENE,67,4.0,5.0,85,-99.99,,,-99.99,,2013-03-29 05:12:00,
2013-03-29 01:23:00,42.0,38.0,30.17,ENE,67,2.0,4.0,85,-99.99,,,-99.99,,2013-03-29 05:23:00,
2013-03-29 01:32:00,42.0,37.0,30.17,North,0,2.0,4.0,83,-99.99,,,-99.99,,2013-03-29 05:32:00,
2013-03-29 01:43:00,42.0,37.0,30.17,North,0,3.0,3.0,84,-99.99,,,-99.99,,2013-03-29 05:43:00,
2013-03-29 01:52:00,42.0,37.0,30.17,North,0,3.0,4.0,81,-99.99,,,-99.99,,2013-03-29 05:52:00,
2013-03-29 02:02:00,40.0,37.0,30.17,North,0,5.0,5.0,87,-99.99,,,-99.99,,2013-03-29 06:02:00,
2013-03-29 02:12:00,42.0,38.0,30.16,ENE,67,6.0,8.0,85,-99.99,,,-99.99,,2013-03-29 06:12:00,
2013-03-29 02:22:00,44.0,37.0,30.16,North,0,6.0,8.0,79,-99.99,,,-99.99,,2013-03-29 06:22:00,
2013-03-29 02:32:00,43.0,38.0,30.17,NE,45,5.0,6.0,83,-99.99,,,-99.99,,2013-03-29 06:32:00,
2013-03-29 02:42:00,42.0,38.0,30.17,ENE,67,5.0,6.0,85,-99.99,,,-99.99,,2013-03-29 06:42:00,
2013-03-29 02:52:00,43.0,38.0,30.17,NE,45,5.0,6.0,83,-99.99,,,-99.99,,2013-03-29 06:52:00,
2013-03-29 03:02:00,42.0,38.0,30.16,ENE,67,5.0,6.0,85,-99.99,,,-99.99,,2013-03-29 07:02:00,
2013-03-29 03:12:00,41.0,37.0,30.16,NE,45,5.0,6.0,86,-99.99,,,-99.99,,2013-03-29 07:12:00,
2013-03-29 03:22:00,41.0,37.0,30.16,ENE,67,4.0,5.0,86,-99.99,,,-99.99,,2013-03-29 07:22:00,
2013-03-29 03:32:00,40.0,36.0,30.16,North,0,3.0,4.0,86,-99.99,,,-99.99,,2013-03-29 07:32:00,
2013-03-29 03:42:00,40.0,36.0,30.16,ENE,67,4.0,6.0,87,-99.99,,,-99.99,,2013-03-29 07:42:00,
2013-03-29 03:52:00,40.0,36.0,30.16,ENE,67,3.0,3.0,86,-99.99,,,-99.99,,2013-03-29 07:52:00,
2013-03-29 04:02:00,41.0,36.0,30.16,North,0,3.0,4.0,83,-99.99,,,-99.99,,2013-03-29 08:02:00,
2013-03-29 04:12:00,40.0,36.0,30.15,ENE,67,3.0,4.0,84,-99.99,,,-99.99,,2013-03-29 08:12:00,
2013-03-29 04:22:00,38.0,35.0,30.15,ENE,67,5.0,6.0,87,-99.99,,,-99.99,,2013-03-29 08:22:00,
2013-03-29 04:32:00,39.0,35.0,30.15,ENE,67,4.0,5.0,86,-99.99,,,-99.99,,2013-03-29 08:32:00,
2013-03-29 04:42:00,38.0,35.0,30.15,ENE,67,4.0,4.0,89,-99.99,,,-99.99,,2013-03-29 08:42:00,
2013-03-29 04:52:00,39.0,35.0,30.15,ENE,67,4.0,5.0,87,-99.99,,,-99.99,,2013-03-29 08:52:00,
2013-03-29 05:02:00,38.0,35.0,30.15,NE,45,5.0,6.0,89,-99.99,,,-99.99,,2013-03-29 09:02:00,
2013-03-29 05:12:00,38.0,35.0,30.15,NE,45,5.0,6.0,89,-99.99,,,-99.99,,2013-03-29 09:12:00,
2013-03-29 05:22:00,38.0,35.0,30.15,NE,45,3.0,4.0,90,-99.99,,,-99.99,,2013-03-29 09:22:00,
2013-03-29 05:32:00,38.0,36.0,30.14,NE,45,4.0,5.0,90,-99.99,,,-99.99,,2013-03-29 09:32:00,
2013-03-29 05:42:00,38.0,35.0,30.15,ENE,67,4.0,5.0,90,-99.99,,,-99.99,,2013-03-29 09:42:00,
2013-03-29 05:52:00,38.0,35.0,30.15,ENE,67,4.0,5.0,90,-99.99,,,-99.99,,2013-03-29 09:52:00,
2013-03-29 06:02:00,37.0,35.0,30.15,NE,45,5.0,6.0,90,-99.99,,,-99.99,,2013-03-29 10:02:00,
2013-03-29 06:12:00,37.0,35.0,30.15,NE,45,4.0,6.0,91,-99.99,,,-99.99,,2013-03-29 10:12:00,
2013-03-29 06:22:00,37.0,35.0,30.15,ENE,67,4.0,5.0,91,-99.99,,,-99.99,,2013-03-29 10:22:00,
2013-03-29 06:33:00,37.0,34.0,30.15,ENE,67,4.0,5.0,91,-99.99,,,-99.99,,2013-03-29 10:33:00,
2013-03-29 06:42:00,37.0,34.0,30.15,NE,45,4.0,4.0,92,-99.99,,,-99.99,,2013-03-29 10:42:00,
2013-03-29 06:52:00,36.0,34.0,30.15,NE,45,4.0,5.0,92,-99.99,,,-99.99,,2013-03-29 10:52:00,
2013-03-29 07:03:00,36.0,34.0,30.15,NE,45,5.0,6.0,93,-99.99,,,-99.99,,2013-03-29 11:03:00,
2013-03-29 07:12:00,36.0,34.0,30.15,NE,45,4.0,5.0,93,-99.99,,,-99.99,,2013-03-29 11:12:00,
2013-03-29 07:23:00,36.0,34.0,30.15,ENE,67,4.0,5.0,93,-99.99,,,-99.99,,2013-03-29 11:23:00,
2013-03-29 07:32:00,36.0,34.0,30.16,NE,45,5.0,6.0,93,-99.99,,,-99.99,,2013-03-29 11:32:00,
2013-03-29 07:42:00,36.0,34.0,30.15,ENE,67,5.0,6.0,94,-99.99,,,-99.99,,2013-03-29 11:42:00,
2013-03-29 07:52:00,36.0,34.0,30.16,ENE,67,4.0,5.0,94,-99.99,,,-99.99,,2013-03-29 11:52:00,
2013-03-29 08:02:00,36.0,34.0,30.16,ENE,67,4.0,5.0,94,-99.99,,,-99.99,,2013-03-29 12:02:00,
2013-03-29 08:12:00,36.0,34.0,30.16,ENE,67,4.0,5.0,94,-99.99,,,-99.99,,2013-03-29 12:12:00,
2013-03-29 08:22:00,36.0,34.0,30.17,ENE,67,4.0,5.0,94,-99.99,,,-99.99,,2013-03-29 12:22:00,
2013-03-29 08:32:00,37.0,35.0,30.17,NE,45,4.0,5.0,94,-99.99,,,-99.99,,2013-03-29 12:32:00,
2013-03-29 08:42:00,37.0,35.0,30.17,ENE,67,4.0,4.0,93,-99.99,,,-99.99,,2013-03-29 12:42:00,
2013-03-29 08:52:00,38.0,36.0,30.17,ENE,67,4.0,5.0,93,-99.99,,,-99.99,,2013-03-29 12:52:00,
2013-03-29 09:02:00,39.0,36.0,30.18,NE,45,4.0,4.0,92,-99.99,,,-99.99,,2013-03-29 13:02:00,
2013-03-29 09:12:00,39.0,37.0,30.18,NE,45,4.0,6.0,91,-99.99,,,-99.99,,2013-03-29 13:12:00,
2013-03-29 09:22:00,40.0,37.0,30.18,NE,45,4.0,5.0,90,-99.99,,,-99.99,,2013-03-29 13:22:00,
2013-03-29 09:32:00,41.0,38.0,30.18,ENE,67,5.0,6.0,89,-99.99,,,-99.99,,2013-03-29 13:32:00,
2013-03-29 09:42:00,42.0,39.0,30.18,NE,45,5.0,6.0,88,-99.99,,,-99.99,,2013-03-29 13:42:00,
2013-03-29 09:52:00,43.0,40.0,30.18,ENE,67,5.0,6.0,87,-99.99,,,-99.99,,2013-03-29 13:52:00,
2013-03-29 10:02:00,44.0,40.0,30.18,North,0,6.0,8.0,86,-99.99,,,-99.99,,2013-03-29 14:02:00,
2013-03-29 10:12:00,45.0,40.0,30.19,North,0,5.0,7.0,84,-99.99,,,-99.99,,2013-03-29 14:12:00,
2013-03-29 10:22:00,45.0,40.0,30.18,North,0,5.0,7.0,82,-99.99,,,-99.99,,2013-03-29 14:22:00,
2013-03-29 10:32:00,47.0,41.0,30.19,ESE,112,5.0,7.0,82,-99.99,,,-99.99,,2013-03-29 14:32:00,
2013-03-29 10:42:00,47.0,42.0,30.19,North,0,4.0,7.0,81,-99.99,,,-99.99,,2013-03-29 14:42:00,
2013-03-29 10:52:00,48.0,42.0,30.19,ENE,67,4.0,7.0,80,-99.99,,,-99.99,,2013-03-29 14:52:00,
2013-03-29 11:02:00,48.0,41.0,30.19,North,0,5.0,7.0,77,-99.99,,,-99.99,,2013-03-29 15:02:00,
2013-03-29 11:12:00,49.0,43.0,30.20,North,0,5.0,7.0,79,-99.99,,,-99.99,,2013-03-29 15:12:00,
2013-03-29 11:22:00,49.0,42.0,30.19,ENE,67,5.0,8.0,75,-99.99,,,-99.99,,2013-03-29 15:22:00,
2013-03-29 11:33:00,51.0,43.0,30.19,ENE,67,3.0,7.0,75,-99.99,,,-99.99,,2013-03-29 15:33:00,
2013-03-29 11:42:00,51.0,42.0,30.19,ESE,112,4.0,7.0,72,-99.99,,,-99.99,,2013-03-29 15:42:00,
2013-03-29 11:52:00,52.0,42.0,30.19,NNE,22,3.0,6.0,69,-99.99,,,-99.99,,2013-03-29 15:52:00,
2013-03-29 12:03:00,52.0,42.0,30.20,NE,45,4.0,7.0,68,-99.99,,,-99.99,,2013-03-29 16:03:00,
2013-03-29 12:12:00,53.0,43.0,30.20,NNE,22,7.0,9.0,67,-99.99,,,-99.99,,2013-03-29 16:12:00,
2013-03-29 12:23:00,54.0,44.0,30.20,NE,45,7.0,11.0,68,-99.99,,,-99.99,,2013-03-29 16:23:00,
2013-03-29 12:32:00,55.0,43.0,30.20,NE,45,7.0,11.0,65,-99.99,,,-99.99,,2013-03-29 16:32:00,
2013-03-29 12:42:00,55.0,43.0,30.20,NNE,22,7.0,9.0,65,-99.99,,,-99.99,,2013-03-29 16:42:00,
2013-03-29 12:52:00,56.0,43.0,30.20,NNE,22,6.0,9.0,63,-99.99,,,-99.99,,2013-03-29 16:52:00,
2013-03-29 13:03:00,56.0,43.0,30.20,NNE,22,6.0,9.0,61,-99.99,,,-99.99,,2013-03-29 17:03:00,
2013-03-29 13:12:00,56.0,45.0,30.20,NE,45,7.0,10.0,66,-99.99,,,-99.99,,2013-03-29 17:12:00,
2013-03-29 13:22:00,57.0,47.0,30.19,ENE,67,9.0,13.0,68,-99.99,,,-99.99,,2013-03-29 17:22:00,
2013-03-29 13:33:00,58.0,45.0,30.19,North,0,9.0,12.0,62,-99.99,,,-99.99,,2013-03-29 17:33:00,
2013-03-29 13:42:00,58.0,43.0,30.19,ENE,67,8.0,11.0,57,-99.99,,,-99.99,,2013-03-29 17:42:00,
2013-03-29 13:52:00,58.0,46.0,30.19,North,0,10.0,12.0,64,-99.99,,,-99.99,,2013-03-29 17:52:00,
2013-03-29 14:02:00,58.0,43.0,30.19,North,0,7.0,11.0,58,-99.99,,,-99.99,,2013-03-29 18:02:00,
2013-03-29 14:12:00,59.0,42.0,30.19,NE,45,5.0,9.0,55,-99.99,,,-99.99,,2013-03-29 18:12:00,
2013-03-29 14:22:00,59.0,46.0,30.19,North,0,7.0,10.0,60,-99.99,,,-99.99,,2013-03-29 18:22:00,
2013-03-29 14:32:00,59.0,43.0,30.19,ENE,67,8.0,11.0,54,-99.99,,,-99.99,,2013-03-29 18:32:00,
2013-03-29 14:42:00,60.0,45.0,30.18,NE,45,5.0,8.0,58,-99.99,,,-99.99,,2013-03-29 18:42:00,
2013-03-29 14:52:00,60.0,45.0,30.18,ESE,112,6.0,13.0,57,-99.99,,,-99.99,,2013-03-29 18:52:00,
2013-03-29 15:02:00,60.0,45.0,30.18,North,0,9.0,13.0,58,-99.99,,,-99.99,,2013-03-29 19:02:00,
2013-03-29 15:12:00,61.0,46.0,30.17,NNE,22,8.0,13.0,58,-99.99,,,-99.99,,2013-03-29 19:12:00,
2013-03-29 15:22:00,61.0,45.0,30.17,NE,45,5.0,8.0,55,-99.99,,,-99.99,,2013-03-29 19:22:00,
2013-03-29 15:32:00,61.0,42.0,30.17,ENE,67,6.0,11.0,50,-99.99,,,-99.99,,2013-03-29 19:32:00,
2013-03-29 15:42:00,61.0,42.0,30.16,NNE,22,5.0,9.0,50,-99.99,,,-99.99,,2013-03-29 19:42:00,
2013-03-29 15:52:00,61.0,37.0,30.17,ENE,67,5.0,8.0,40,-99.99,,,-99.99,,2013-03-29 19:52:00,
2013-03-29 16:02:00,62.0,41.0,30.16,NE,45,5.0,11.0,46,-99.99,,,-99.99,,2013-03-29 20:02:00,
2013-03-29 16:12:00,62.0,38.0,30.15,ENE,67,5.0,12.0,42,-99.99,,,-99.99,,2013-03-29 20:12:00,
2013-03-29 16:22:00,61.0,38.0,30.16,NE,45,6.0,12.0,42,-99.99,,,-99.99,,2013-03-29 20:22:00,
2013-03-29 16:32:00,62.0,39.0,30.15,NNE,22,8.0,12.0,42,-99.99,,,-99.99,,2013-03-29 20:32:00,
2013-03-29 16:42:00,63.0,47.0,30.15,ENE,67,6.0,12.0,57,-99.99,,,-99.99,,2013-03-29 20:42:00,
2013-03-29 16:52:00,63.0,43.0,30.15,ENE,67,6.0,12.0,49,-99.99,,,-99.99,,2013-03-29 20:52:00,
2013-03-29 17:02:00,62.0,43.0,30.14,ENE,67,7.0,12.0,50,-99.99,,,-99.99,,2013-03-29 21:02:00,
2013-03-29 17:12:00,62.0,41.0,30.15,ESE,112,5.0,10.0,45,-99.99,,,-99.99,,2013-03-29 21:12:00,
2013-03-29 17:22:00,62.0,44.0,30.14,North,0,7.0,12.0,51,-99.99,,,-99.99,,2013-03-29 21:22:00,
2013-03-29 17:32:00,62.0,39.0,30.14,North,0,9.0,12.0,43,-99.99,,,-99.99,,2013-03-29 21:32:00,
2013-03-29 17:42:00,62.0,42.0,30.14,NE,45,6.0,9.0,48,-99.99,,,-99.99,,2013-03-29 21:42:00,
2013-03-29 17:53:00,62.0,42.0,30.14,ENE,67,9.0,13.0,48,-99.99,,,-99.99,,2013-03-29 21:53:00,
2013-03-29 18:03:00,62.0,37.0,30.13,NE,45,9.0,14.0,40,-99.99,,,-99.99,,2013-03-29 22:03:00,
2013-03-29 18:12:00,62.0,39.0,30.13,North,0,9.0,13.0,42,-99.99,,,-99.99,,2013-03-29 22:12:00,
2013-03-29 18:22:00,61.0,38.0,30.14,NE,45,10.0,13.0,42,-99.99,,,-99.99,,2013-03-29 22:22:00,
2013-03-29 18:33:00,62.0,41.0,30.13,North,0,11.0,14.0,47,-99.99,,,-99.99,,2013-03-29 22:33:00,
2013-03-29 18:42:00,62.0,37.0,30.14,ENE,67,7.0,11.0,40,-99.99,,,-99.99,,2013-03-29 22:42:00,
2013-03-29 18:52:00,61.0,41.0,30.14,NE,45,8.0,11.0,47,-99.99,,,-99.99,,2013-03-29 22:52:00,
2013-03-29 19:02:00,61.0,39.0,30.14,ENE,67,7.0,9.0,43,-99.99,,,-99.99,,2013-03-29 23:02:00,
2013-03-29 19:12:00,60.0,40.0,30.14,ENE,67,9.0,12.0,47,-99.99,,,-99.99,,2013-03-29 23:12:00,
2013-03-29 19:22:00,60.0,41.0,30.14,ENE,67,8.0,11.0,49,-99.99,,,-99.99,,2013-03-29 23:22:00,
2013-03-29 19:32:00,60.0,41.0,30.14,North,0,7.0,9.0,49,-99.99,,,-99.99,,2013-03-29 23:32:00,
2013-03-29 19:42:00,59.0,42.0,30.14,ENE,67,7.0,10.0,54,-99.99,,,-99.99,,2013-03-29 23:42:00,
2013-03-29 19:52:00,58.0,42.0,30.14,ENE,67,8.0,9.0,56,-99.99,,,-99.99,,2013-03-29 23:52:00,
2013-03-29 20:03:00,57.0,43.0,30.14,ENE,67,6.0,7.0,60,-99.99,,,-99.99,,2013-03-30 00:03:00,
2013-03-29 20:12:00,55.0,43.0,30.15,North,0,5.0,6.0,63,-99.99,,,-99.99,,2013-03-30 00:12:00,
2013-03-29 20:22:00,55.0,43.0,30.14,North,0,5.0,6.0,64,-99.99,,,-99.99,,2013-03-30 00:22:00,
2013-03-29 20:32:00,53.0,42.0,30.14,ENE,67,5.0,7.0,66,-99.99,,,-99.99,,2013-03-30 00:32:00,
2013-03-29 20:42:00,52.0,42.0,30.14,ENE,67,5.0,6.0,70,-99.99,,,-99.99,,2013-03-30 00:42:00,
2013-03-29 20:52:00,52.0,41.0,30.14,ENE,67,5.0,6.0,68,-99.99,,,-99.99,,2013-03-30 00:52:00,
2013-03-29 21:02:00,51.0,41.0,30.14,ENE,67,5.0,6.0,69,-99.99,,,-99.99,,2013-03-30 01:02:00,
2013-03-29 21:12:00,50.0,41.0,30.14,North,0,5.0,6.0,69,-99.99,,,-99.99,,2013-03-30 01:12:00,
2013-03-29 21:22:00,51.0,41.0,30.15,ENE,67,5.0,6.0,69,-99.99,,,-99.99,,2013-03-30 01:22:00,
2013-03-29 21:32:00,51.0,41.0,30.15,ENE,67,5.0,7.0,69,-99.99,,,-99.99,,2013-03-30 01:32:00,
2013-03-29 21:42:00,49.0,41.0,30.15,ENE,67,5.0,6.0,73,-99.99,,,-99.99,,2013-03-30 01:42:00,
2013-03-29 21:52:00,49.0,41.0,30.15,ENE,67,6.0,6.0,73,-99.99,,,-99.99,,2013-03-30 01:52:00,
2013-03-29 22:02:00,49.0,41.0,30.15,ENE,67,6.0,6.0,73,-99.99,,,-99.99,,2013-03-30 02:02:00,
2013-03-29 22:12:00,48.0,41.0,30.16,ENE,67,6.0,6.0,75,-99.99,,,-99.99,,2013-03-30 02:12:00,
2013-03-29 22:22:00,48.0,41.0,30.16,North,0,6.0,7.0,75,-99.99,,,-99.99,,2013-03-30 02:22:00,
2013-03-29 22:32:00,48.0,41.0,30.15,ENE,67,6.0,7.0,76,-99.99,,,-99.99,,2013-03-30 02:32:00,
2013-03-29 22:42:00,48.0,41.0,30.15,North,0,6.0,7.0,76,-99.99,,,-99.99,,2013-03-30 02:42:00,
2013-03-29 22:52:00,47.0,41.0,30.15,ENE,67,6.0,7.0,77,-99.99,,,-99.99,,2013-03-30 02:52:00,
2013-03-29 23:02:00,47.0,41.0,30.16,North,0,6.0,7.0,77,-99.99,,,-99.99,,2013-03-30 03:02:00,
2013-03-29 23:12:00,47.0,40.0,30.16,North,0,5.0,6.0,78,-99.99,,,-99.99,,2013-03-30 03:12:00,
2013-03-29 23:22:00,47.0,40.0,30.16,ESE,112,4.0,6.0,76,-99.99,,,-99.99,,2013-03-30 03:22:00,
2013-03-29 23:33:00,46.0,39.0,30.16,North,0,4.0,5.0,76,-99.99,,,-99.99,,2013-03-30 03:33:00,
2013-03-29 23:43:00,47.0,39.0,30.16,ESE,112,4.0,5.0,76,-99.99,,,-99.99,,2013-03-30 03:43:00,
2013-03-29 23:52:00,45.0,39.0,30.16,North,0,4.0,5.0,80,-99.99,,,-99.99,,2013-03-30 03:52:00,